#timestamp,LO_Frequency,Hit,StdDev 
1637622015.7,286047002.1,N
1637622035.5,286047001.9,N
1637622055.4,286047002.2,N
1637622075.2,286047003.9,N
1637622095.0,286047004.0,N
1637622095.9,286047004.0,N
1637622115.8,286047002.0,N
1637622135.6,286047004.0,N
1637622155.5,286047004.1,N
1637622175.3,286047002.7,N
1637622195.1,286047002.7,N
1637622215.9,286046999.7,N
1637622235.7,286047002.2,N
1637622255.5,286047004.4,Y
1637622275.4,286047000.4,P
1637622295.2,286047000.0,N
1637622315.1,286047000.2,N
1637622316.0,286047000.2,N
1637622335.8,286047002.1,N
1637622355.6,286047004.4,Y
1637622375.5,286047002.6,P
1637622395.3,286047002.2,N
1637622415.2,286047002.6,P
1637622435.9,286047000.3,N
1637622455.7,286047002.8,N
1637622475.6,286046999.9,N
1637622495.4,286047000.4,N
1637622515.2,286046999.8,N
1637622535.1,286047000.1,N
1637622536.0,286047000.1,N
1637622555.8,286046999.7,N
1637622575.7,286047002.8,N
1637622595.5,286047000.5,N
1637622615.3,286047000.1,N
1637622635.2,286046998.5,N
1637622655.0,286047001.2,N
1637622655.9,286047001.2,N
1637622675.7,286046998.5,N
1637622695.6,286047000.7,N
1637622715.4,286047001.2,N
1637622735.3,286047001.1,N
1637622755.1,286046998.1,N
1637622756.0,286046998.1,N
1637622775.8,286047001.1,N
1637622795.7,286046998.4,N
1637622815.5,286046998.9,N
1637622835.3,286046998.7,N
1637622855.2,286047000.7,N
1637622875.0,286046998.2,N
1637622875.9,286046998.2,N
1637622895.8,286047000.5,N
1637622915.6,286047001.1,N
1637622935.4,286047000.7,N
1637622955.3,286047001.2,N
1637622975.1,286046998.3,N
1637622995.8,286047000.0,N
1637623015.7,286047000.6,N
1637623035.5,286047000.5,N
1637623055.4,286046998.3,N
1637623075.2,286046998.5,N
1637623095.0,286047000.5,N
1637623095.9,286047000.5,N
1637623115.8,286047000.7,N
1637623135.6,286047000.0,N
1637623155.4,286046998.2,N
1637623175.3,286047000.7,N
1637623195.1,286047000.1,N
1637623215.9,286047002.3,N
1637623235.7,286047002.5,N
1637623255.5,286047002.4,N
1637623275.4,286047000.2,N
1637623295.2,286047000.1,N
1637623315.0,286047000.8,N
1637623315.9,286047000.8,N
1637623335.8,286047000.5,N
1637623355.6,286047000.3,N
1637623375.5,286046998.1,N
1637623395.3,286046998.9,N
1637623415.1,286046996.8,N
1637623435.9,286046999.3,N
1637623455.7,286046998.5,N
1637623475.5,286047001.0,N
1637623495.4,286047000.2,N
1637623515.2,286047000.5,N
1637623535.1,286047001.0,N
1637623536.0,286047001.0,N
1637623555.8,286046998.5,N
1637623575.6,286046999.4,N
1637623595.5,286046999.5,N
1637623615.3,286046998.4,N
1637623635.2,286046996.6,N
1637623655.9,286046998.3,N
1637623675.7,286046998.5,N
1637623695.6,286046998.9,N
1637623715.4,286046998.4,N
1637623735.2,286047002.6,N
1637623755.1,286047000.0,N
1637623756.0,286047000.0,N
1637623775.8,286047000.1,N
1637623795.7,286046999.9,N
1637623815.5,286046999.7,N
1637623835.3,286047000.2,N
1637623855.2,286047000.4,N
1637623875.0,286047001.0,N
1637623875.9,286047001.0,N
1637623895.8,286046998.4,N
1637623915.6,286046998.5,N
1637623935.4,286046998.2,N
1637623955.3,286046999.0,N
1637623975.1,286047000.7,N
1637623995.8,286047001.1,N
1637624015.7,286046999.9,N
1637624035.5,286047000.9,N
1637624055.4,286046999.4,N
1637624075.2,286046999.0,N
1637624095.0,286046999.1,N
1637624095.9,286046999.1,N
1637624115.8,286046998.4,N
1637624135.6,286046999.0,N
1637624155.4,286046999.0,N
1637624175.3,286046998.8,N
1637624195.1,286047001.2,N
1637624215.9,286046998.8,N
1637624235.7,286046996.6,Y
1637624255.5,286046996.8,P
1637624275.4,286046998.9,N
1637624295.2,286046998.3,N
1637624315.1,286046998.5,N
1637624316.0,286046998.5,N
1637624335.8,286047001.0,N
1637624355.6,286047000.7,N
1637624375.5,286047000.0,N
1637624395.3,286047002.5,N
1637624415.2,286047002.1,N
1637624435.9,286046999.9,N
1637624455.7,286047000.0,N
1637624475.6,286046999.8,N
1637624495.4,286046999.9,N
1637624515.2,286047001.1,N
1637624535.1,286046999.3,N
1637624536.0,286046999.3,N
1637624555.8,286046997.0,N
1637624575.7,286046999.4,N
1637624595.5,286046998.4,N
1637624615.3,286046999.3,N
1637624635.2,286046999.3,N
1637624655.9,286046996.6,N
1637624675.7,286046995.4,Y
1637624695.6,286046995.2,P
1637624715.4,286046997.2,N
1637624735.3,286046996.9,N
1637624755.1,286046999.4,N
1637624775.8,286047001.1,N
1637624795.7,286046998.4,N
1637624815.5,286046999.6,N
1637624835.4,286046998.7,N
1637624855.2,286046996.9,N
1637624875.0,286046999.1,N
1637624875.9,286046999.1,N
1637624895.8,286046999.2,N
1637624915.6,286046999.5,N
1637624935.4,286046996.6,N
1637624955.3,286046999.4,N
1637624975.1,286046999.0,N
1637624995.9,286046998.3,N
1637625015.7,286047001.1,N
1637625035.5,286047000.9,N
1637625055.4,286047001.0,N
1637625075.2,286046999.9,N
1637625095.0,286047001.1,N
1637625095.9,286047001.1,N
1637625115.8,286047000.1,N
1637625135.6,286047000.7,N
1637625155.5,286047001.2,N
1637625175.3,286047001.2,N
1637625195.1,286046998.5,N
1637625215.9,286046998.8,N
1637625235.7,286046997.0,N
1637625255.5,286046997.9,N
1637625275.4,286046995.0,Y
1637625295.2,286046997.3,P
1637625315.1,286046996.9,P
1637625316.0,286046996.9,N
1637625335.8,286046999.0,N
1637625355.6,286046996.7,Y
1637625375.5,286047001.2,P
1637625395.3,286047000.7,N
1637625415.2,286047001.0,N
1637625435.0,286047000.5,N
1637625435.9,286047000.5,N
1637625455.7,286046998.5,N
1637625475.6,286046998.2,N
1637625495.4,286047001.0,N
1637625515.3,286046998.5,N
1637625535.1,286046999.0,N
1637625536.0,286046999.0,N
1637625555.8,286046998.8,N
1637625575.7,286046998.9,N
1637625595.5,286046998.9,N
